Location: Columbia
(38.9520°N, 92.3340°W)
Time: 18:54:52
(UTC-05:00)

Tiangong 1 - Visible Passes

Search period start: 30 September 2014 00:00
Search period end: 10 October 2014 00:00
Orbit: 359 x 368 km, 42.8° (Epoch: 30 September)

Date Brightness Start Highest point End Pass type
(mag) Time Alt. Az. Time Alt. Az. Time Alt. Az.
30 Sep 2.4 06:05:06 12° SSW 06:07:32 32° SSE 06:10:18 10° E visible
01 Oct 3.8 05:02:14 15° SE 05:02:14 15° SE 05:03:24 10° ESE visible
01 Oct 0.9 06:34:23 10° WSW 06:37:24 89° NNW 06:40:26 10° ENE visible
02 Oct 1.6 05:30:59 46° SSE 05:31:03 46° SSE 05:33:58 10° ENE visible
03 Oct 1.0 05:59:33 32° W 06:00:46 69° NNW 06:03:47 10° ENE visible
04 Oct 3.8 04:56:10 19° ENE 04:56:10 19° ENE 04:57:10 10° ENE visible
04 Oct 1.8 06:27:57 12° WNW 06:30:33 41° N 06:33:26 10° ENE visible
05 Oct 2.0 05:24:26 42° NE 05:24:26 42° NE 05:26:44 10° ENE visible
06 Oct 1.9 05:52:34 31° NW 05:53:22 38° N 05:56:13 10° ENE visible
07 Oct 4.3 04:48:51 13° ENE 04:48:51 13° ENE 04:49:17 10° ENE visible
07 Oct 1.9 06:20:36 14° WNW 06:22:54 40° N 06:25:46 10° ENE visible
08 Oct 2.9 05:16:47 27° NE 05:16:47 27° NE 05:18:36 10° ENE visible
09 Oct 1.7 05:44:40 40° NNW 05:45:06 44° N 05:48:00 10° E visible
